Training

As most of you know, the flight school has added a Super Decathlon to our fleet. Not only are we now offering tail wheel endorsements in it, but we also offer a different kind of training... Check out this link to AOPA's Pilot magazine article, and see what is ALSO OFFERED TO YOU RIGHT HERE AT … [Read More...]

Weather

METAR FOR KCHA (Issued: Tue, September 30th 2014 10:53 PM UTC):
KCHA 302253Z 00000KT 10SM FEW055 SCT250 28/15 A2989 RMK AO2 SLP116 T02780150

Accomplishments

Marvin Mueller

Congratulations to Marvin Mueller our newest private pilot. Marvin passed his check ride on Friday March 8th. … [Read More...]

Congrats to Randy Sexton

Congratulations to Randy Sexton on becoming our newest Private Pilot at Hixson Aviation. Randy completed his checkride on Monday, March 4, 2013. … [Read More...]

Dallas Bay Skypark - 1A0